Year,Month,Day,Hour,Minute,Value (Times are PST for temperature in C)
2019,03,31,00,00,5.60
2019,03,31,00,01,5.60
2019,03,31,00,02,5.60
2019,03,31,00,03,5.60
2019,03,31,00,04,5.60
2019,03,31,00,05,5.60
2019,03,31,00,06,5.60
2019,03,31,00,07,5.60
2019,03,31,00,08,5.50
2019,03,31,00,09,5.50
2019,03,31,00,10,5.50
2019,03,31,00,11,5.50
2019,03,31,00,12,5.40
2019,03,31,00,13,5.40
2019,03,31,00,14,5.40
2019,03,31,00,15,5.40
2019,03,31,00,16,5.30
2019,03,31,00,17,5.30
2019,03,31,00,18,5.30
2019,03,31,00,19,5.20
2019,03,31,00,20,5.20
2019,03,31,00,21,5.20
2019,03,31,00,22,5.10
2019,03,31,00,23,5.10
2019,03,31,00,24,5.20
2019,03,31,00,25,5.20
2019,03,31,00,26,5.20
2019,03,31,00,27,5.20
2019,03,31,00,28,5.20
2019,03,31,00,29,5.20
2019,03,31,00,30,5.20
2019,03,31,00,31,5.20
2019,03,31,00,32,5.20
2019,03,31,00,33,5.20
2019,03,31,00,34,5.20
2019,03,31,00,35,5.20
2019,03,31,00,36,5.20
2019,03,31,00,37,5.20
2019,03,31,00,38,5.10
2019,03,31,00,39,5.20
2019,03,31,00,40,5.20
2019,03,31,00,41,5.10
2019,03,31,00,42,5.10
2019,03,31,00,43,5.10
2019,03,31,00,44,5.00
2019,03,31,00,45,5.00
2019,03,31,00,46,5.00
2019,03,31,00,47,5.00
2019,03,31,00,48,5.00
2019,03,31,00,49,5.00
2019,03,31,00,50,5.00
2019,03,31,00,51,5.00
2019,03,31,00,52,5.00
2019,03,31,00,53,5.00
2019,03,31,00,54,5.00
2019,03,31,00,55,5.00
2019,03,31,00,56,5.00
2019,03,31,00,57,5.00
2019,03,31,00,58,5.00
2019,03,31,00,59,4.90
2019,03,31,01,00,4.90
2019,03,31,01,01,4.90
2019,03,31,01,02,4.90
2019,03,31,01,03,4.90
2019,03,31,01,04,4.90
2019,03,31,01,05,4.90
2019,03,31,01,06,4.80
2019,03,31,01,07,4.80
2019,03,31,01,08,4.80
2019,03,31,01,09,4.80
2019,03,31,01,10,4.80
2019,03,31,01,11,4.80
2019,03,31,01,12,4.80
2019,03,31,01,13,4.70
2019,03,31,01,14,4.70
2019,03,31,01,15,4.70
2019,03,31,01,16,4.70
2019,03,31,01,17,4.70
2019,03,31,01,18,4.70
2019,03,31,01,19,4.60
2019,03,31,01,20,4.60
2019,03,31,01,21,4.60
2019,03,31,01,22,4.60
2019,03,31,01,23,4.60
2019,03,31,01,24,4.60
2019,03,31,01,25,4.70
2019,03,31,01,26,4.70
2019,03,31,01,27,4.70
2019,03,31,01,28,4.70
2019,03,31,01,29,4.80
2019,03,31,01,30,4.80
2019,03,31,01,31,4.80
2019,03,31,01,32,4.80
2019,03,31,01,33,4.80
2019,03,31,01,34,4.80
2019,03,31,01,35,4.80
2019,03,31,01,36,4.80
2019,03,31,01,37,4.80
2019,03,31,01,38,4.80
2019,03,31,01,39,4.80
2019,03,31,01,40,4.80
2019,03,31,01,41,4.80
2019,03,31,01,42,4.80
2019,03,31,01,43,4.80
2019,03,31,01,44,4.80
2019,03,31,01,45,4.70
2019,03,31,01,46,4.70
2019,03,31,01,47,4.70
2019,03,31,01,48,4.70
2019,03,31,01,49,4.70
2019,03,31,01,50,4.70
2019,03,31,01,51,4.70
2019,03,31,01,52,4.60
2019,03,31,01,53,4.60
2019,03,31,01,54,4.60
2019,03,31,01,55,4.60
2019,03,31,01,56,4.60
2019,03,31,01,57,4.60
2019,03,31,01,58,4.60
2019,03,31,01,59,4.60
2019,03,31,02,00,4.60
2019,03,31,02,01,4.60
2019,03,31,02,02,4.50
2019,03,31,02,03,4.50
2019,03,31,02,04,4.50
2019,03,31,02,05,4.50
2019,03,31,02,06,4.50
2019,03,31,02,07,4.40
2019,03,31,02,08,4.40
2019,03,31,02,09,4.40
2019,03,31,02,10,4.40
2019,03,31,02,11,4.40
2019,03,31,02,12,4.40
2019,03,31,02,13,4.40
2019,03,31,02,14,4.40
2019,03,31,02,15,4.40
2019,03,31,02,16,4.40
2019,03,31,02,17,4.40
2019,03,31,02,18,4.40
2019,03,31,02,19,4.30
2019,03,31,02,20,4.30
2019,03,31,02,21,4.30
2019,03,31,02,22,4.30
2019,03,31,02,23,4.30
2019,03,31,02,24,4.30
2019,03,31,02,25,4.30
2019,03,31,02,26,4.30
2019,03,31,02,27,4.30
2019,03,31,02,28,4.30
2019,03,31,02,29,4.30
2019,03,31,02,30,4.30
2019,03,31,02,31,4.30
2019,03,31,02,32,4.30
2019,03,31,02,33,4.30
2019,03,31,02,34,4.30
2019,03,31,02,35,4.20
2019,03,31,02,36,4.20
2019,03,31,02,37,4.20
2019,03,31,02,38,4.20
2019,03,31,02,39,4.20
2019,03,31,02,40,4.20
2019,03,31,02,41,4.20
2019,03,31,02,42,4.20
2019,03,31,02,43,4.20
2019,03,31,02,44,4.20
2019,03,31,02,45,4.20
2019,03,31,02,46,4.20
2019,03,31,02,47,4.20
2019,03,31,02,48,4.20
2019,03,31,02,49,4.10
2019,03,31,02,50,4.10
2019,03,31,02,51,4.10
2019,03,31,02,52,4.10
2019,03,31,02,53,4.10
2019,03,31,02,54,4.10
2019,03,31,02,55,4.10
2019,03,31,02,56,4.10
2019,03,31,02,57,4.10
2019,03,31,02,58,4.00
2019,03,31,02,59,4.00
2019,03,31,03,00,4.00
2019,03,31,03,01,3.90
2019,03,31,03,02,3.90
2019,03,31,03,03,3.90
2019,03,31,03,04,3.90
2019,03,31,03,05,3.80
2019,03,31,03,06,3.80
2019,03,31,03,07,3.80
2019,03,31,03,08,3.80
2019,03,31,03,09,3.80
2019,03,31,03,10,3.80
2019,03,31,03,11,3.80
2019,03,31,03,12,3.80
2019,03,31,03,13,3.80
2019,03,31,03,14,3.80
2019,03,31,03,15,3.80
2019,03,31,03,16,3.80
2019,03,31,03,17,3.80
2019,03,31,03,18,3.80
2019,03,31,03,19,3.70
2019,03,31,03,20,3.70
2019,03,31,03,21,3.70
2019,03,31,03,22,3.70
2019,03,31,03,23,3.70
2019,03,31,03,24,3.60
2019,03,31,03,25,3.60
2019,03,31,03,26,3.70
2019,03,31,03,27,3.70
2019,03,31,03,28,3.60
2019,03,31,03,29,3.60
2019,03,31,03,30,3.60
2019,03,31,03,31,3.60
2019,03,31,03,32,3.60
2019,03,31,03,33,3.60
2019,03,31,03,34,3.60
2019,03,31,03,35,3.60
2019,03,31,03,36,3.70
2019,03,31,03,37,3.70
2019,03,31,03,38,3.70
2019,03,31,03,39,3.70
2019,03,31,03,40,3.70
2019,03,31,03,41,3.70
2019,03,31,03,42,3.70
2019,03,31,03,43,3.60
2019,03,31,03,44,3.60
2019,03,31,03,45,3.60
2019,03,31,03,46,3.60
2019,03,31,03,47,3.50
2019,03,31,03,48,3.50
2019,03,31,03,49,3.50
2019,03,31,03,50,3.50
2019,03,31,03,51,3.50
2019,03,31,03,52,3.50
2019,03,31,03,53,3.40
2019,03,31,03,54,3.40
2019,03,31,03,55,3.40
2019,03,31,03,56,3.40
2019,03,31,03,57,3.40
2019,03,31,03,58,3.40
2019,03,31,03,59,3.40
2019,03,31,04,00,3.40
2019,03,31,04,01,3.30
2019,03,31,04,02,3.30
2019,03,31,04,03,3.30
2019,03,31,04,04,3.30
2019,03,31,04,05,3.20
2019,03,31,04,06,3.30
2019,03,31,04,07,3.30
2019,03,31,04,08,3.30
2019,03,31,04,09,3.30
2019,03,31,04,10,3.30
2019,03,31,04,11,3.30
2019,03,31,04,12,3.30
2019,03,31,04,13,3.20
2019,03,31,04,14,3.20
2019,03,31,04,15,3.20
2019,03,31,04,16,3.30
2019,03,31,04,17,3.30
2019,03,31,04,18,3.30
2019,03,31,04,19,3.30
2019,03,31,04,20,3.30
2019,03,31,04,21,3.30
2019,03,31,04,22,3.30
2019,03,31,04,23,3.30
2019,03,31,04,24,3.30
2019,03,31,04,25,3.30
2019,03,31,04,26,3.40
2019,03,31,04,27,3.40
2019,03,31,04,28,3.40
2019,03,31,04,29,3.40
2019,03,31,04,30,3.40
2019,03,31,04,31,3.40
2019,03,31,04,32,3.40
2019,03,31,04,33,3.40
2019,03,31,04,34,3.40
2019,03,31,04,35,3.30
2019,03,31,04,36,3.30
2019,03,31,04,37,3.30
2019,03,31,04,38,3.30
2019,03,31,04,39,3.30
2019,03,31,04,40,3.30
2019,03,31,04,41,3.20
2019,03,31,04,42,3.20
2019,03,31,04,43,3.20
2019,03,31,04,44,3.10
2019,03,31,04,45,3.10
2019,03,31,04,46,3.00
2019,03,31,04,47,2.90
2019,03,31,04,48,2.90
2019,03,31,04,49,2.90
2019,03,31,04,50,2.90
2019,03,31,04,51,2.80
2019,03,31,04,52,2.80
2019,03,31,04,53,2.80
2019,03,31,04,54,2.80
2019,03,31,04,55,2.80
2019,03,31,04,56,2.80
2019,03,31,04,57,2.80
2019,03,31,04,58,2.70
2019,03,31,04,59,2.80
2019,03,31,05,00,2.80
2019,03,31,05,01,2.80
2019,03,31,05,02,2.80
2019,03,31,05,03,2.80
2019,03,31,05,04,2.80
2019,03,31,05,05,2.80
2019,03,31,05,06,2.80
2019,03,31,05,07,2.80
2019,03,31,05,08,2.80
2019,03,31,05,09,2.80
2019,03,31,05,10,2.80
2019,03,31,05,11,2.80
2019,03,31,05,12,2.80
2019,03,31,05,13,2.80
2019,03,31,05,14,2.80
2019,03,31,05,15,2.80
2019,03,31,05,16,2.80
2019,03,31,05,17,2.80
2019,03,31,05,18,2.80
2019,03,31,05,19,2.90
2019,03,31,05,20,2.90
2019,03,31,05,21,2.90
2019,03,31,05,22,2.90
2019,03,31,05,23,2.80
2019,03,31,05,24,2.80
2019,03,31,05,25,2.80
2019,03,31,05,26,2.80
2019,03,31,05,27,2.80
2019,03,31,05,28,2.80
2019,03,31,05,29,2.80
2019,03,31,05,30,2.80
2019,03,31,05,31,2.80
2019,03,31,05,32,2.80
2019,03,31,05,33,2.80
2019,03,31,05,34,2.80
2019,03,31,05,35,2.80
2019,03,31,05,36,2.80
2019,03,31,05,37,2.80
2019,03,31,05,38,2.70
2019,03,31,05,39,2.70
2019,03,31,05,40,2.70
2019,03,31,05,41,2.70
2019,03,31,05,42,2.70
2019,03,31,05,43,2.70
2019,03,31,05,44,2.70
2019,03,31,05,45,2.70
2019,03,31,05,46,2.70
2019,03,31,05,47,2.70
2019,03,31,05,48,2.60
2019,03,31,05,49,2.60
2019,03,31,05,50,2.60
2019,03,31,05,51,2.60
2019,03,31,05,52,2.60
2019,03,31,05,53,2.60
2019,03,31,05,54,2.60
2019,03,31,05,55,2.50
2019,03,31,05,56,2.50
2019,03,31,05,57,2.50
2019,03,31,05,58,2.50
2019,03,31,05,59,2.60
2019,03,31,06,00,2.60
2019,03,31,06,01,2.60
2019,03,31,06,02,2.60
2019,03,31,06,03,2.60
2019,03,31,06,04,2.60
2019,03,31,06,05,2.60
2019,03,31,06,06,2.60
2019,03,31,06,07,2.60
2019,03,31,06,08,2.60
2019,03,31,06,09,2.60
2019,03,31,06,10,2.60
2019,03,31,06,11,2.60
2019,03,31,06,12,2.60
2019,03,31,06,13,2.50
2019,03,31,06,14,2.50
2019,03,31,06,15,2.40
2019,03,31,06,16,2.40
2019,03,31,06,17,2.40
2019,03,31,06,18,2.40
2019,03,31,06,19,2.40
2019,03,31,06,20,2.40
2019,03,31,06,21,2.40
2019,03,31,06,22,2.40
2019,03,31,06,23,2.40
2019,03,31,06,24,2.40
2019,03,31,06,25,2.40
2019,03,31,06,26,2.40
2019,03,31,06,27,2.40
2019,03,31,06,28,2.40
2019,03,31,06,29,2.40
2019,03,31,06,30,2.40
2019,03,31,06,31,2.40
2019,03,31,06,32,2.40
2019,03,31,06,33,2.40
2019,03,31,06,34,2.30
2019,03,31,06,35,2.30
2019,03,31,06,36,2.30
2019,03,31,06,37,2.20
2019,03,31,06,38,2.20
2019,03,31,06,39,2.20
2019,03,31,06,40,2.10
2019,03,31,06,41,2.10
2019,03,31,06,42,2.10
2019,03,31,06,43,2.10
2019,03,31,06,44,2.00
2019,03,31,06,45,2.00
2019,03,31,06,46,2.00
2019,03,31,06,47,2.00
2019,03,31,06,48,2.00
2019,03,31,06,49,2.00
2019,03,31,06,50,2.00
2019,03,31,06,51,2.00
2019,03,31,06,52,2.00
2019,03,31,06,53,2.00
2019,03,31,06,54,2.00
2019,03,31,06,55,2.00
2019,03,31,06,56,2.00
2019,03,31,06,57,1.90
2019,03,31,06,58,1.90
2019,03,31,06,59,1.90
2019,03,31,07,00,1.90
2019,03,31,07,01,2.00
2019,03,31,07,02,2.00
2019,03,31,07,03,2.00
2019,03,31,07,04,2.00
2019,03,31,07,05,2.00
2019,03,31,07,06,2.10
2019,03,31,07,07,2.10
2019,03,31,07,08,2.10
2019,03,31,07,09,2.10
2019,03,31,07,10,2.10
2019,03,31,07,11,2.10
2019,03,31,07,12,2.10
2019,03,31,07,13,2.10
2019,03,31,07,14,2.10
2019,03,31,07,15,2.10
2019,03,31,07,16,2.10
2019,03,31,07,17,2.10
2019,03,31,07,18,2.10
2019,03,31,07,19,2.10
2019,03,31,07,20,2.10
2019,03,31,07,21,2.10
2019,03,31,07,22,2.10
2019,03,31,07,23,2.10
2019,03,31,07,24,2.10
2019,03,31,07,25,2.10
2019,03,31,07,26,2.10
2019,03,31,07,27,2.10
2019,03,31,07,28,2.10
2019,03,31,07,29,2.10
2019,03,31,07,30,2.00
2019,03,31,07,31,2.00
2019,03,31,07,32,2.00
2019,03,31,07,33,2.00
2019,03,31,07,34,2.00
2019,03,31,07,35,2.00
2019,03,31,07,36,2.10
2019,03,31,07,37,2.10
2019,03,31,07,38,2.10
2019,03,31,07,39,2.20
2019,03,31,07,40,2.20
2019,03,31,07,41,2.20
2019,03,31,07,42,2.30
2019,03,31,07,43,2.30
2019,03,31,07,44,2.30
2019,03,31,07,45,2.40
2019,03,31,07,46,2.50
2019,03,31,07,47,2.50
2019,03,31,07,48,2.60
2019,03,31,07,49,2.60
2019,03,31,07,50,2.60
2019,03,31,07,51,2.70
2019,03,31,07,52,2.70
2019,03,31,07,53,2.70
2019,03,31,07,54,2.80
2019,03,31,07,55,2.80
2019,03,31,07,56,2.90
2019,03,31,07,57,2.90
2019,03,31,07,58,3.00
2019,03,31,07,59,3.00
2019,03,31,08,00,3.10
2019,03,31,08,01,3.10
2019,03,31,08,02,3.20
2019,03,31,08,03,3.20
2019,03,31,08,04,3.20
2019,03,31,08,05,3.20
2019,03,31,08,06,3.20
2019,03,31,08,07,3.30
2019,03,31,08,08,3.30
2019,03,31,08,09,3.40
2019,03,31,08,10,3.50
2019,03,31,08,11,3.50
2019,03,31,08,12,3.60
2019,03,31,08,13,3.60
2019,03,31,08,14,3.70
2019,03,31,08,15,3.80
2019,03,31,08,16,3.80
2019,03,31,08,17,3.90
2019,03,31,08,18,3.90
2019,03,31,08,19,4.00
2019,03,31,08,20,4.10
2019,03,31,08,21,4.10
2019,03,31,08,22,4.20
2019,03,31,08,23,4.20
2019,03,31,08,24,4.20
2019,03,31,08,25,4.30
2019,03,31,08,26,4.30
2019,03,31,08,27,4.30
2019,03,31,08,28,4.40
2019,03,31,08,29,4.40
2019,03,31,08,30,4.40
2019,03,31,08,31,4.50
2019,03,31,08,32,4.50
2019,03,31,08,33,4.50
2019,03,31,08,34,4.60
2019,03,31,08,35,4.60
2019,03,31,08,36,4.60
2019,03,31,08,37,4.70
2019,03,31,08,38,4.70
2019,03,31,08,39,4.80
2019,03,31,08,40,4.90
2019,03,31,08,41,4.90
2019,03,31,08,42,5.00
2019,03,31,08,43,5.10
2019,03,31,08,44,5.20
2019,03,31,08,45,5.30
2019,03,31,08,46,5.40
2019,03,31,08,47,5.50
2019,03,31,08,48,5.60
2019,03,31,08,49,5.70
2019,03,31,08,50,5.80
2019,03,31,08,51,5.90
2019,03,31,08,52,6.10
2019,03,31,08,53,6.20
2019,03,31,08,54,6.40
2019,03,31,08,55,6.60
2019,03,31,08,56,6.80
2019,03,31,08,57,7.00
2019,03,31,08,58,7.10
2019,03,31,08,59,7.30
2019,03,31,09,00,7.40
2019,03,31,09,01,7.50
2019,03,31,09,02,7.60
2019,03,31,09,03,7.70
2019,03,31,09,04,7.80
2019,03,31,09,05,7.90
2019,03,31,09,06,8.00
2019,03,31,09,07,8.10
2019,03,31,09,08,8.10
2019,03,31,09,09,8.20
2019,03,31,09,10,8.30
2019,03,31,09,11,8.40
2019,03,31,09,12,8.40
2019,03,31,09,13,8.50
2019,03,31,09,14,8.50
2019,03,31,09,15,8.60
2019,03,31,09,16,8.70
2019,03,31,09,17,8.70
2019,03,31,09,18,8.80
2019,03,31,09,19,8.80
2019,03,31,09,20,8.90
2019,03,31,09,21,8.90
2019,03,31,09,22,8.90
2019,03,31,09,23,8.90
2019,03,31,09,24,8.90
2019,03,31,09,25,8.90
2019,03,31,09,26,8.80
2019,03,31,09,27,8.80
2019,03,31,09,28,8.80
2019,03,31,09,29,8.80
2019,03,31,09,30,8.90
2019,03,31,09,31,8.90
2019,03,31,09,32,9.00
2019,03,31,09,33,9.00
2019,03,31,09,34,9.10
2019,03,31,09,35,9.20
2019,03,31,09,36,9.30
2019,03,31,09,37,9.30
2019,03,31,09,38,9.40
2019,03,31,09,39,9.50
2019,03,31,09,40,9.60
2019,03,31,09,41,9.70
2019,03,31,09,42,9.70
2019,03,31,09,43,9.80
2019,03,31,09,44,9.80
2019,03,31,09,45,9.90
2019,03,31,09,46,10.00
2019,03,31,09,47,10.00
2019,03,31,09,48,10.10
2019,03,31,09,49,10.10
2019,03,31,09,50,10.10
2019,03,31,09,51,10.20
2019,03,31,09,52,10.10
2019,03,31,09,53,10.10
2019,03,31,09,54,10.10
2019,03,31,09,55,10.10
2019,03,31,09,56,10.10
2019,03,31,09,57,10.00
2019,03,31,09,58,9.90
2019,03,31,09,59,9.90
2019,03,31,10,00,9.80
2019,03,31,10,01,9.80
2019,03,31,10,02,9.80
2019,03,31,10,03,9.80
2019,03,31,10,04,9.80
2019,03,31,10,05,9.80
2019,03,31,10,06,9.90
2019,03,31,10,07,9.90
2019,03,31,10,08,9.90
2019,03,31,10,09,9.90
2019,03,31,10,10,9.80
2019,03,31,10,11,9.80
2019,03,31,10,12,9.70
2019,03,31,10,13,9.70
2019,03,31,10,14,9.60
2019,03,31,10,15,9.60
2019,03,31,10,16,9.50
2019,03,31,10,17,9.50
2019,03,31,10,18,9.40
2019,03,31,10,19,9.50
2019,03,31,10,20,9.40
2019,03,31,10,21,9.40
2019,03,31,10,22,9.40
2019,03,31,10,23,9.40
2019,03,31,10,24,9.40
2019,03,31,10,25,9.50
2019,03,31,10,26,9.50
2019,03,31,10,27,9.50
2019,03,31,10,28,9.50
2019,03,31,10,29,9.50
2019,03,31,10,30,9.40
2019,03,31,10,31,9.50
2019,03,31,10,32,9.50
2019,03,31,10,33,9.60
2019,03,31,10,34,9.70
2019,03,31,10,35,9.70
2019,03,31,10,36,9.80
2019,03,31,10,37,9.80
2019,03,31,10,38,9.90
2019,03,31,10,39,10.00
2019,03,31,10,40,10.00
2019,03,31,10,41,10.00
2019,03,31,10,42,10.10
2019,03,31,10,43,10.10
2019,03,31,10,44,10.10
2019,03,31,10,45,10.10
2019,03,31,10,46,10.10
2019,03,31,10,47,10.20
2019,03,31,10,48,10.10
2019,03,31,10,49,10.10
2019,03,31,10,50,10.10
2019,03,31,10,51,10.00
2019,03,31,10,52,10.00
2019,03,31,10,53,10.10
2019,03,31,10,54,10.10
2019,03,31,10,55,10.20
2019,03,31,10,56,10.20
2019,03,31,10,57,10.20
2019,03,31,10,58,10.20
2019,03,31,10,59,10.20
2019,03,31,11,00,10.20
2019,03,31,11,01,10.20
2019,03,31,11,02,10.20
2019,03,31,11,03,10.20
2019,03,31,11,04,10.20
2019,03,31,11,05,10.20
2019,03,31,11,06,10.20
2019,03,31,11,07,10.10
2019,03,31,11,08,10.10
2019,03,31,11,09,10.20
2019,03,31,11,10,10.20
2019,03,31,11,11,10.20
2019,03,31,11,12,10.30
2019,03,31,11,13,10.40
2019,03,31,11,14,10.40
2019,03,31,11,15,10.50
2019,03,31,11,16,10.60
2019,03,31,11,17,10.70
2019,03,31,11,18,10.70
2019,03,31,11,19,10.80
2019,03,31,11,20,10.90
2019,03,31,11,21,10.90
2019,03,31,11,22,11.00
2019,03,31,11,23,11.00
2019,03,31,11,24,11.00
2019,03,31,11,25,10.90
2019,03,31,11,26,10.90
2019,03,31,11,27,11.00
2019,03,31,11,28,11.00
2019,03,31,11,29,11.00
2019,03,31,11,30,11.10
2019,03,31,11,31,11.20
2019,03,31,11,32,11.20
2019,03,31,11,33,11.30
2019,03,31,11,34,11.40
2019,03,31,11,35,11.40
2019,03,31,11,36,11.50
2019,03,31,11,37,11.50
2019,03,31,11,38,11.60
2019,03,31,11,39,11.60
2019,03,31,11,40,11.70
2019,03,31,11,41,11.70
2019,03,31,11,42,11.80
2019,03,31,11,43,11.80
2019,03,31,11,44,11.80
2019,03,31,11,45,11.90
2019,03,31,11,46,12.00
2019,03,31,11,47,12.00
2019,03,31,11,48,12.10
2019,03,31,11,49,12.10
2019,03,31,11,50,12.20
2019,03,31,11,51,12.20
2019,03,31,11,52,12.30
2019,03,31,11,53,12.30
2019,03,31,11,54,12.30
2019,03,31,11,55,12.20
2019,03,31,11,56,12.20
2019,03,31,11,57,12.20
2019,03,31,11,58,12.20
2019,03,31,11,59,12.20
2019,03,31,12,00,12.20
2019,03,31,12,01,12.20
2019,03,31,12,02,12.30
2019,03,31,12,03,12.30
2019,03,31,12,04,12.30
2019,03,31,12,05,12.40
2019,03,31,12,06,12.40
2019,03,31,12,07,12.40
2019,03,31,12,08,12.40
2019,03,31,12,09,12.40
2019,03,31,12,10,12.40
2019,03,31,12,11,12.50
2019,03,31,12,12,12.50
2019,03,31,12,13,12.50
2019,03,31,12,14,12.50
2019,03,31,12,15,12.40
2019,03,31,12,16,12.40
2019,03,31,12,17,12.40
2019,03,31,12,18,12.40
2019,03,31,12,19,12.50
2019,03,31,12,20,12.50
2019,03,31,12,21,12.60
2019,03,31,12,22,12.60
2019,03,31,12,23,12.60
2019,03,31,12,24,12.70
2019,03,31,12,25,12.70
2019,03,31,12,26,12.70
2019,03,31,12,27,12.70
2019,03,31,12,28,12.70
2019,03,31,12,29,12.80
2019,03,31,12,30,12.70
2019,03,31,12,31,12.70
2019,03,31,12,32,12.70
2019,03,31,12,33,12.60
2019,03,31,12,34,12.50
2019,03,31,12,35,12.40
2019,03,31,12,36,12.30
2019,03,31,12,37,12.30
2019,03,31,12,38,12.30
2019,03,31,12,39,12.30
2019,03,31,12,40,12.20
2019,03,31,12,41,12.30
2019,03,31,12,42,12.30
2019,03,31,12,43,12.30
2019,03,31,12,44,12.30
2019,03,31,12,45,12.30
2019,03,31,12,46,12.40
2019,03,31,12,47,12.40
2019,03,31,12,48,12.40
2019,03,31,12,49,12.40
2019,03,31,12,50,12.30
2019,03,31,12,51,12.20
2019,03,31,12,52,12.10
2019,03,31,12,53,12.10
2019,03,31,12,54,12.10
2019,03,31,12,55,12.00
2019,03,31,12,56,12.10
2019,03,31,12,57,12.10
2019,03,31,12,58,12.10
2019,03,31,12,59,12.10
2019,03,31,13,00,12.20
2019,03,31,13,01,12.20
2019,03,31,13,02,12.20
2019,03,31,13,03,12.20
2019,03,31,13,04,12.20
2019,03,31,13,05,12.20
2019,03,31,13,06,12.20
2019,03,31,13,07,12.30
2019,03,31,13,08,12.30
2019,03,31,13,09,12.30
2019,03,31,13,10,12.40
2019,03,31,13,11,12.40
2019,03,31,13,12,12.40
2019,03,31,13,13,12.50
2019,03,31,13,14,12.50
2019,03,31,13,15,12.50
2019,03,31,13,16,12.50
2019,03,31,13,17,12.50
2019,03,31,13,18,12.50
2019,03,31,13,19,12.40
2019,03,31,13,20,12.50
2019,03,31,13,21,12.50
2019,03,31,13,22,12.50
2019,03,31,13,23,12.50
2019,03,31,13,24,12.60
2019,03,31,13,25,12.70
2019,03,31,13,26,12.80
2019,03,31,13,27,12.80
2019,03,31,13,28,12.90
2019,03,31,13,29,12.90
2019,03,31,13,30,13.00
2019,03,31,13,31,13.00
2019,03,31,13,32,13.10
2019,03,31,13,33,13.20
2019,03,31,13,34,13.20
2019,03,31,13,35,13.20
2019,03,31,13,36,13.30
2019,03,31,13,37,13.30
2019,03,31,13,38,13.30
2019,03,31,13,39,13.30
2019,03,31,13,40,13.30
2019,03,31,13,41,13.20
2019,03,31,13,42,13.10
2019,03,31,13,43,13.00
2019,03,31,13,44,12.90
2019,03,31,13,45,12.80
2019,03,31,13,46,12.70
2019,03,31,13,47,12.60
2019,03,31,13,48,12.60
2019,03,31,13,49,12.60
2019,03,31,13,50,12.60
2019,03,31,13,51,12.60
2019,03,31,13,52,12.60
2019,03,31,13,53,12.70
2019,03,31,13,54,12.70
2019,03,31,13,55,12.70
2019,03,31,13,56,12.70
2019,03,31,13,57,12.70
2019,03,31,13,58,12.70
2019,03,31,13,59,12.70
2019,03,31,14,00,12.70
2019,03,31,14,01,12.60
2019,03,31,14,02,12.40
2019,03,31,14,03,12.20
2019,03,31,14,04,12.20
2019,03,31,14,05,12.20
2019,03,31,14,06,12.20
2019,03,31,14,07,12.20
2019,03,31,14,08,12.20
2019,03,31,14,09,12.30
2019,03,31,14,10,12.30
2019,03,31,14,11,12.30
2019,03,31,14,12,12.40
2019,03,31,14,13,12.40
2019,03,31,14,14,12.40
2019,03,31,14,15,12.50
2019,03,31,14,16,12.50
2019,03,31,14,17,12.50
2019,03,31,14,18,12.50
2019,03,31,14,19,12.60
2019,03,31,14,20,12.60
2019,03,31,14,21,12.60
2019,03,31,14,22,12.60
2019,03,31,14,23,12.70
2019,03,31,14,24,12.70
2019,03,31,14,25,12.70
2019,03,31,14,26,12.70
2019,03,31,14,27,12.70
2019,03,31,14,28,12.80
2019,03,31,14,29,12.80
2019,03,31,14,30,12.80
2019,03,31,14,31,12.80
2019,03,31,14,32,12.70
2019,03,31,14,33,12.60
2019,03,31,14,34,12.50
2019,03,31,14,35,12.50
2019,03,31,14,36,12.40
2019,03,31,14,37,12.40
2019,03,31,14,38,12.40
2019,03,31,14,39,12.30
2019,03,31,14,40,12.20
2019,03,31,14,41,12.20
2019,03,31,14,42,12.20
2019,03,31,14,43,12.20
2019,03,31,14,44,12.20
2019,03,31,14,45,12.20
2019,03,31,14,46,12.20
2019,03,31,14,47,12.20
2019,03,31,14,48,12.10
2019,03,31,14,49,12.00
2019,03,31,14,50,12.00
2019,03,31,14,51,12.00
2019,03,31,14,52,12.00
2019,03,31,14,53,11.90
2019,03,31,14,54,11.90
2019,03,31,14,55,11.90
2019,03,31,14,56,11.90
2019,03,31,14,57,11.90
2019,03,31,14,58,11.90
2019,03,31,14,59,11.90
2019,03,31,15,00,12.00
2019,03,31,15,01,12.00
2019,03,31,15,02,12.10
2019,03,31,15,03,12.10
2019,03,31,15,04,12.20
2019,03,31,15,05,12.30
2019,03,31,15,06,12.30
2019,03,31,15,07,12.20
2019,03,31,15,08,12.20
2019,03,31,15,09,12.10
2019,03,31,15,10,12.20
2019,03,31,15,11,12.20
2019,03,31,15,12,12.20
2019,03,31,15,13,12.20
2019,03,31,15,14,12.20
2019,03,31,15,15,12.20
2019,03,31,15,16,12.20
2019,03,31,15,17,12.10
2019,03,31,15,18,12.10
2019,03,31,15,19,12.00
2019,03,31,15,20,12.00
2019,03,31,15,21,12.00
2019,03,31,15,22,12.00
2019,03,31,15,23,11.90
2019,03,31,15,24,11.90
2019,03,31,15,25,11.90
2019,03,31,15,26,11.90
2019,03,31,15,27,11.90
2019,03,31,15,28,12.00
2019,03,31,15,29,12.00
2019,03,31,15,30,12.10
2019,03,31,15,31,12.10
2019,03,31,15,32,12.10
2019,03,31,15,33,12.20
2019,03,31,15,34,12.20
2019,03,31,15,35,12.20
2019,03,31,15,36,12.20
2019,03,31,15,37,12.20
2019,03,31,15,38,12.20
2019,03,31,15,39,12.20
2019,03,31,15,40,12.30
2019,03,31,15,41,12.30
2019,03,31,15,42,12.30
2019,03,31,15,43,12.20
2019,03,31,15,44,12.30
2019,03,31,15,45,12.30
2019,03,31,15,46,12.30
2019,03,31,15,47,12.20
2019,03,31,15,48,12.20
2019,03,31,15,49,12.20
2019,03,31,15,50,12.20
2019,03,31,15,51,12.20
2019,03,31,15,52,12.30
2019,03,31,15,53,12.30
2019,03,31,15,54,12.30
2019,03,31,15,55,12.40
2019,03,31,15,56,12.40
2019,03,31,15,57,12.40
2019,03,31,15,58,12.50
2019,03,31,15,59,12.50
2019,03,31,16,00,12.50
2019,03,31,16,01,12.60
2019,03,31,16,02,12.60
2019,03,31,16,03,12.60
2019,03,31,16,04,12.60
2019,03,31,16,05,12.60
2019,03,31,16,06,12.60
2019,03,31,16,07,12.70
2019,03,31,16,08,12.70
2019,03,31,16,09,12.70
2019,03,31,16,10,12.70
2019,03,31,16,11,12.70
2019,03,31,16,12,12.70
2019,03,31,16,13,12.60
2019,03,31,16,14,12.60
2019,03,31,16,15,12.70
2019,03,31,16,16,12.70
2019,03,31,16,17,12.70
2019,03,31,16,18,12.80
2019,03,31,16,19,12.80
2019,03,31,16,20,12.90
2019,03,31,16,21,12.90
2019,03,31,16,22,12.90
2019,03,31,16,23,12.90
2019,03,31,16,24,12.90
2019,03,31,16,25,12.90
2019,03,31,16,26,12.90
2019,03,31,16,27,12.90
2019,03,31,16,28,12.90
2019,03,31,16,29,12.90
2019,03,31,16,30,12.90
2019,03,31,16,31,12.90
2019,03,31,16,32,12.90
2019,03,31,16,33,13.00
2019,03,31,16,34,13.00
2019,03,31,16,35,13.00
2019,03,31,16,36,13.00
2019,03,31,16,37,13.10
2019,03,31,16,38,13.10
2019,03,31,16,39,13.10
2019,03,31,16,40,13.10
2019,03,31,16,41,13.10
2019,03,31,16,42,13.10
2019,03,31,16,43,13.00
2019,03,31,16,44,13.00
2019,03,31,16,45,12.90
2019,03,31,16,46,12.90
2019,03,31,16,47,12.90
2019,03,31,16,48,12.80
2019,03,31,16,49,12.80
2019,03,31,16,50,12.80
2019,03,31,16,51,12.70
2019,03,31,16,52,12.60
2019,03,31,16,53,12.60
2019,03,31,16,54,12.50
2019,03,31,16,55,12.50
2019,03,31,16,56,12.40
2019,03,31,16,57,12.40
2019,03,31,16,58,12.40
2019,03,31,16,59,12.40
2019,03,31,17,00,12.40
2019,03,31,17,01,12.30
2019,03,31,17,02,12.30
2019,03,31,17,03,12.30
2019,03,31,17,04,12.30
2019,03,31,17,05,12.30
2019,03,31,17,06,12.30
2019,03,31,17,07,12.30
2019,03,31,17,08,12.30
2019,03,31,17,09,12.30
2019,03,31,17,10,12.30
2019,03,31,17,11,12.30
2019,03,31,17,12,12.30
2019,03,31,17,13,12.30
2019,03,31,17,14,12.30
2019,03,31,17,15,12.30
2019,03,31,17,16,12.20
2019,03,31,17,17,12.20
2019,03,31,17,18,12.20
2019,03,31,17,19,12.20
2019,03,31,17,20,12.20
2019,03,31,17,21,12.20
2019,03,31,17,22,12.20
2019,03,31,17,23,12.20
2019,03,31,17,24,12.20
2019,03,31,17,25,12.20
2019,03,31,17,26,12.10
2019,03,31,17,27,12.10
2019,03,31,17,28,12.10
2019,03,31,17,29,12.10
2019,03,31,17,30,12.10
2019,03,31,17,31,12.10
2019,03,31,17,32,12.10
2019,03,31,17,33,12.10
2019,03,31,17,34,12.10
2019,03,31,17,35,12.10
2019,03,31,17,36,12.00
2019,03,31,17,37,12.00
2019,03,31,17,38,12.00
2019,03,31,17,39,11.90
2019,03,31,17,40,11.90
2019,03,31,17,41,11.90
2019,03,31,17,42,11.90
2019,03,31,17,43,11.90
2019,03,31,17,44,11.90
2019,03,31,17,45,11.80
2019,03,31,17,46,11.80